Location: Arbon
(43.0005°N, 0.7472°E)
Time: 12:02:33
(UTC+00:00)

Cosmos 967 Rocket - Pass Details

Date: 22 April 2026
Orbit: 942 x 994 km, 65.8° (Epoch: 15 May)

Event Time Altitude Azimuth Distance (km) Brightness Sun altitude
Rises 21:11:52 0° 326° (NW) 3,710 8.9 -23.1°
Reaches altitude 10° 21:14:28 10° 325° (NW) 2,753 7.9 -23.5°
Maximum altitude 21:20:54 76° 241° (WSW) 1,010 4.5 -24.3°
Enters shadow 21:22:39 50° 169° (SSE) 1,223 4.6 -24.5°
